Time,TemperatureF,DewpointF,PressureIn,WindDirection,WindDirectionDegrees,WindSpeedMPH,WindSpeedGustMPH,Humidity,HourlyPrecipIn,Conditions,Clouds,dailyrainin,SolarRadiationWatts/m^2,SoftwareType,DateUTC
2013-09-22 00:02:00,52.0,39.0,-100.00,NW,311,3.0,7.0,61,0.00,,,0.00,0.000000,,2013-09-22 06:02:00,
2013-09-22 07:52:00,47.0,37.0,-100.00,North,358,3.0,5.0,69,0.00,,,0.00,3.000000,,2013-09-22 13:52:00,
2013-09-22 08:02:00,47.0,37.0,-100.00,North,358,3.0,5.0,69,0.00,,,0.00,3.000000,,2013-09-22 14:02:00,
2013-09-22 11:43:00,68.0,33.0,-100.00,South,181,7.0,12.0,27,0.00,,,0.00,834.000000,,2013-09-22 17:43:00,
2013-09-22 13:42:00,69.0,32.0,-100.00,South,171,9.0,16.0,25,0.00,,,0.00,1019.000000,,2013-09-22 19:42:00,
2013-09-22 13:52:00,69.0,32.0,-100.00,South,171,9.0,16.0,25,0.00,,,0.00,1019.000000,,2013-09-22 19:52:00,
2013-09-22 14:03:00,69.0,32.0,-100.00,South,171,9.0,16.0,25,0.00,,,0.00,1019.000000,,2013-09-22 20:03:00,
2013-09-22 14:42:00,69.0,34.0,-100.00,SSE,158,7.0,16.0,27,0.00,,,0.00,972.000000,,2013-09-22 20:42:00,
2013-09-22 14:52:00,69.0,34.0,-100.00,SSE,158,7.0,16.0,27,0.00,,,0.00,972.000000,,2013-09-22 20:52:00,
2013-09-22 15:02:00,69.0,34.0,-100.00,SSE,158,7.0,16.0,27,0.00,,,0.00,972.000000,,2013-09-22 21:02:00,
2013-09-22 15:04:00,69.0,36.0,-100.00,South,176,9.0,22.0,30,0.00,,,0.00,903.000000,,2013-09-22 21:04:00,
2013-09-22 15:45:00,69.0,36.0,-100.00,South,176,9.0,22.0,30,0.00,,,0.00,903.000000,,2013-09-22 21:45:00,
2013-09-22 15:54:00,69.0,36.0,-100.00,South,176,9.0,22.0,30,0.00,,,0.00,903.000000,,2013-09-22 21:54:00,
2013-09-22 16:43:00,69.0,38.0,-100.00,SSE,164,9.0,19.0,32,0.00,,,0.00,747.000000,,2013-09-22 22:43:00,
2013-09-22 16:53:00,69.0,38.0,-100.00,SSE,164,9.0,19.0,32,0.00,,,0.00,747.000000,,2013-09-22 22:53:00,
2013-09-22 17:03:00,69.0,38.0,-100.00,SSE,164,9.0,19.0,32,0.00,,,0.00,747.000000,,2013-09-22 23:03:00,
2013-09-22 17:22:00,64.0,38.0,-100.00,SSE,159,10.0,19.0,38,0.00,,,0.00,502.000000,,2013-09-22 23:22:00,
2013-09-22 17:34:00,64.0,38.0,-100.00,SSE,159,10.0,19.0,38,0.00,,,0.00,502.000000,,2013-09-22 23:34:00,
2013-09-22 17:43:00,64.0,38.0,-100.00,SSE,159,10.0,19.0,38,0.00,,,0.00,502.000000,,2013-09-22 23:43:00,
2013-09-22 17:52:00,64.0,38.0,-100.00,SSE,159,10.0,19.0,38,0.00,,,0.00,502.000000,,2013-09-22 23:52:00,
2013-09-22 18:01:00,64.0,38.0,-100.00,SSE,159,10.0,19.0,38,0.00,,,0.00,502.000000,,2013-09-23 00:01:00,
2013-09-22 18:23:00,61.0,40.0,-100.00,South,169,11.0,20.0,45,0.00,,,0.00,98.000000,,2013-09-23 00:23:00,
2013-09-22 18:32:00,61.0,40.0,-100.00,South,169,11.0,20.0,45,0.00,,,0.00,98.000000,,2013-09-23 00:32:00,
2013-09-22 18:42:00,61.0,40.0,-100.00,South,169,11.0,20.0,45,0.00,,,0.00,98.000000,,2013-09-23 00:42:00,
2013-09-22 18:53:00,61.0,40.0,-100.00,South,169,11.0,20.0,45,0.00,,,0.00,98.000000,,2013-09-23 00:53:00,
2013-09-22 19:01:00,61.0,40.0,-100.00,South,169,11.0,20.0,45,0.00,,,0.00,98.000000,,2013-09-23 01:01:00,
2013-09-22 19:22:00,58.0,44.0,-100.00,South,188,8.0,17.0,59,0.00,,,0.00,15.000000,,2013-09-23 01:22:00,
2013-09-22 19:32:00,58.0,44.0,-100.00,South,188,8.0,17.0,59,0.00,,,0.00,15.000000,,2013-09-23 01:32:00,
2013-09-22 19:43:00,58.0,44.0,-100.00,South,188,8.0,17.0,59,0.00,,,0.00,15.000000,,2013-09-23 01:43:00,
2013-09-22 19:52:00,58.0,44.0,-100.00,South,188,8.0,17.0,59,0.00,,,0.00,15.000000,,2013-09-23 01:52:00,
2013-09-22 20:02:00,58.0,44.0,-100.00,South,188,8.0,17.0,59,0.00,,,0.00,15.000000,,2013-09-23 02:02:00,
2013-09-22 20:42:00,48.0,40.0,-100.00,South,185,7.0,30.0,75,0.00,,,0.00,0.000000,,2013-09-23 02:42:00,
2013-09-22 20:52:00,48.0,40.0,-100.00,South,185,7.0,30.0,75,0.00,,,0.00,0.000000,,2013-09-23 02:52:00,
2013-09-22 21:03:00,48.0,40.0,-100.00,South,185,7.0,30.0,75,0.00,,,0.00,0.000000,,2013-09-23 03:03:00,
2013-09-22 21:04:00,48.0,44.0,-100.00,South,181,5.0,16.0,85,0.00,,,0.00,0.000000,,2013-09-23 03:04:00,
2013-09-22 21:44:00,48.0,44.0,-100.00,South,181,5.0,16.0,85,0.00,,,0.00,0.000000,,2013-09-23 03:44:00,
2013-09-22 21:54:00,48.0,44.0,-100.00,South,181,5.0,16.0,85,0.00,,,0.00,0.000000,,2013-09-23 03:54:00,
2013-09-22 22:24:00,44.0,39.0,-100.00,WSW,252,9.0,27.0,81,0.00,,,0.00,0.000000,,2013-09-23 04:24:00,
2013-09-22 22:34:00,44.0,39.0,-100.00,WSW,252,9.0,27.0,81,0.00,,,0.00,0.000000,,2013-09-23 04:34:00,
2013-09-22 22:43:00,44.0,39.0,-100.00,WSW,252,9.0,27.0,81,0.00,,,0.00,0.000000,,2013-09-23 04:43:00,
2013-09-22 22:54:00,44.0,39.0,-100.00,WSW,252,9.0,27.0,81,0.00,,,0.00,0.000000,,2013-09-23 04:54:00,
2013-09-22 23:03:00,44.0,39.0,-100.00,WSW,252,9.0,27.0,81,0.00,,,0.00,0.000000,,2013-09-23 05:03:00,